{"data":{"norad_id":58883,"epoch":"2026-09-20T00:47:57.233184Z","epoch_age_seconds":192797,"freshness":"STALE","line1":"1 58883U 24020H   26263.03330131 -.00001054  00000+0 -20064-4 0  9990","line2":"2 58883  53.1590 135.6313 0000941 105.2511 254.8595 15.34392357147886","mean_motion":15.34392357,"eccentricity":9.41e-5,"inclination_deg":53.159,"raan_deg":135.6313,"arg_perigee_deg":105.2511,"mean_anomaly_deg":254.8595,"bstar":-2.0064e-5,"rev_number":14788,"period_min":93.848225548741,"perigee_km":462.08223170384,"apogee_km":463.36968211234,"semimajor_km":6840.8629569081,"source":"CELESTRAK","updated_at":"2026-09-21T09:00:33.993183Z"}}